Back to catalog

CZ-6A DEB

AliveSSO
NORAD 54959·DEBRIS·🇨🇳 China

Launched Nov 11, 2022 from Taiyuan Satellite Launch Center

Loading…

Next Passes (next 24 hours)

TLE

FreshSource: Space-Track

Epoch: Sep 14, 2026, 10:13 UTC

1 54959U 22151SY  26257.42634222  .00000355  00000-0  23367-3 0  9997
2 54959  98.8724 244.8232 0074592 124.7012 236.1213 14.06760624196663

Track CZ-6A DEB in real time with AllMySat

Download on the App Store